World > North America > United States > Ohio   City of Portsmouth, Ohio
Hourly Weather in Portsmouth, OhioPortsmouth, Ohio Hourly Weather

Portsmouth, OH Hourly Weather

Hourly Weather Portsmouth, OhioHourly Weather in Portsmouth, OH
Lat: 38.76N, Lon: 82.95W  ICAO: KHTS
Web Search

Helpful Tip: Type the letters wx in the search engine next time you need to find us.

Feedback

Portsmouth Hourly Weather

36 Hour Weather Scroll   °F Click to change Portsmouth hourly weather to Imperial units.Click to change Portsmouth hourly weather to Metric units. °C
Currently, Clear, temperature is 28°F-2°C, dew point 19.0°F-7°C, humidity 68%. Wind direction is N at 0 mph0 km/h with visibility of 10 mile(s) mi16 km. Barometric pressure is 30.17 in1022 mb.

Nov 29
8:00 AM

Nov 29
9:00 AM

Nov 29
10:00 AM

Nov 29
11:00 AM

Nov 29
NOON

Nov 29
1:00 PM

Nov 29
2:00 PM

Nov 29
3:00 PM

Nov 29
4:00 PM

Nov 29
5:00 PM

Nov 29
6:00 PM

Nov 29
7:00 PM

Nov 29
8:00 PM

Nov 29
9:00 PM

Nov 29
10:00 PM

Nov 29
11:00 PM

Nov 30
MIDNIGHT

Nov 30
1:00 AM

Nov 30
2:00 AM

Nov 30
3:00 AM

Nov 30
4:00 AM

Nov 30
5:00 AM

Nov 30
6:00 AM

Nov 30
7:00 AM

Nov 30
8:00 AM

Nov 30
9:00 AM

Nov 30
10:00 AM

Nov 30
11:00 AM

Nov 30
NOON

Nov 30
1:00 PM

Nov 30
2:00 PM

Nov 30
3:00 PM

Nov 30
4:00 PM

Nov 30
5:00 PM

Nov 30
6:00 PM

Nov 30
7:00 PM
Clear Partly Cloudy Partly Cloudy Partly Cloudy Partly Cloudy Partly Cloudy Partly Cloudy Clear Clear Clear Cloudy Cloudy Cloudy Cloudy Cloudy Cloudy Cloudy Cloudy Cloudy Cloudy Cloudy Cloudy Partly Cloudy Partly Cloudy Partly Cloudy Mostly Clear Mostly Clear Mostly Clear Partly Cloudy Partly Cloudy Partly Cloudy Clear Clear Clear Clear Clear
Clear Partly Cloudy Partly Cloudy Partly Cloudy Partly Cloudy Partly Cloudy Partly Cloudy Clear Clear Clear Cloudy Cloudy Cloudy Cloudy Cloudy Cloudy Cloudy Cloudy Cloudy Cloudy Cloudy Cloudy Partly Cloudy Partly Cloudy Partly Cloudy Mostly Clear Mostly Clear Mostly Clear Partly Cloudy Partly Cloudy Partly Cloudy Clear Clear Clear Clear Clear
30°F-1°C 33°F1°C 35°F2°C 37°F3°C 40°F4°C 42°F6°C 43°F6°C 43°F6°C 44°F7°C 43°F6°C 42°F6°C 41°F5°C 39°F4°C 38°F3°C 36°F2°C 35°F2°C 35°F2°C 34°F1°C 34°F1°C 35°F2°C 35°F2°C 35°F2°C 36°F2°C 36°F2°C 39°F4°C 41°F5°C 44°F7°C 47°F8°C 49°F9°C 52°F11°C 53°F12°C 53°F12°C 54°F12°C 52°F11°C 51°F11°C 49°F9°C
- - - - - - - - - - - - - - - - - - - - - - - - - - - - - - - - - - - -
0% 0% 0% 0% 0% 0% 0% 0% 0% 0% 0% 0% 7% 7% 7% 7% 7% 7% 3% 3% 3% 3% 3% 3% 2% 2% 2% 2% 2% 2% 0% 0% 0% 0% 0% 0%
19°F-7°C 21°F-6°C 22°F-6°C 21°F-6°C 21°F-6°C 20°F-7°C 19°F-7°C 19°F-7°C 18°F-8°C 18°F-8°C 18°F-8°C 18°F-8°C 19°F-7°C 20°F-7°C 21°F-6°C 21°F-6°C 22°F-6°C 22°F-6°C 23°F-5°C 23°F-5°C 24°F-4°C 25°F-4°C 26°F-3°C 27°F-3°C 28°F-2°C 30°F-1°C 31°F-1°C 32°F0°C 33°F1°C 34°F1°C 34°F1°C 34°F1°C 34°F1°C 34°F1°C 33°F1°C 33°F1°C
63% 61% 59% 52% 46% 41% 38% 38% 35% 36% 38% 39% 44% 48% 54% 56% 59% 61% 64% 61% 64% 67% 67% 69% 64% 65% 60% 56% 54% 50% 48% 48% 47% 50% 50% 54%
W W WNW W W SSW SSW SSW SSW SW SW S S S S S S S S S S SSE SW SW SW SW SW SSW SSW SSW SSW SSW SSW SSW SSW SSW
3 mph 3 mph 3 mph 3 mph 5 mph 5 mph 5 mph 6 mph 6 mph 6 mph 3 mph 3 mph 3 mph 4 mph 4 mph 4 mph 5 mph 5 mph 5 mph 7 mph 7 mph 7 mph 7 mph 7 mph 7 mph 9 mph 9 mph 9 mph 6 mph 6 mph 6 mph 6 mph 6 mph 6 mph 4 mph 4 mph
10 mi16 km 10 mi16 km 10 mi16 km 10 mi16 km 10 mi16 km 10 mi16 km 10 mi16 km 10 mi16 km 10 mi16 km 10 mi16 km 10 mi16 km 10 mi16 km 10 mi16 km 10 mi16 km 10 mi16 km 10 mi16 km 10 mi16 km 10 mi16 km 10 mi16 km 10 mi16 km 10 mi16 km 10 mi16 km 10 mi16 km 10 mi16 km 10 mi16 km 10 mi16 km 10 mi16 km 10 mi16 km 10 mi16 km 10 mi16 km 10 mi16 km 10 mi16 km 10 mi16 km 10 mi16 km 10 mi16 km 10 mi16 km
Hour (EST)
Weather
Clouds
Temperature
Precip. Type
POP
Dewpoint
Humidity
Wind Direction
Wind Speed
Visibility
POP = Probability of Precipitation. ** Indicates missing data/values from model statistics.

24 Hour Forecast

Today - Mostly sunny. Highs in the lower 40s. Southwest winds around 5 mph.
Tonight - Partly cloudy in the evening, then becoming mostly cloudy. Lows in the lower 30s. South winds 5 to 10 mph.

48 Hour Forecast API Feed


Mon, Nov 29
8:00 am

Mon, Nov 29
9:00 am

Mon, Nov 29
10:00 am

Mon, Nov 29
11:00 am

Mon, Nov 29
Noon

Mon, Nov 29
1:00 pm

Mon, Nov 29
2:00 pm

Mon, Nov 29
3:00 pm

Mon, Nov 29
4:00 pm

Mon, Nov 29
5:00 pm

Mon, Nov 29
6:00 pm

Mon, Nov 29
7:00 pm

Mon, Nov 29
8:00 pm

Mon, Nov 29
9:00 pm

Mon, Nov 29
10:00 pm

Mon, Nov 29
11:00 pm

Tue, Nov 30
Midnight

Tue, Nov 30
1:00 am

Tue, Nov 30
2:00 am

Tue, Nov 30
3:00 am

Tue, Nov 30
4:00 am

Tue, Nov 30
5:00 am

Tue, Nov 30
6:00 am

Tue, Nov 30
7:00 am

Tue, Nov 30
8:00 am

Tue, Nov 30
9:00 am

Tue, Nov 30
10:00 am

Tue, Nov 30
11:00 am

Tue, Nov 30
Noon

Tue, Nov 30
1:00 pm

Tue, Nov 30
2:00 pm

Tue, Nov 30
3:00 pm

Tue, Nov 30
4:00 pm

Tue, Nov 30
5:00 pm

Tue, Nov 30
6:00 pm

Tue, Nov 30
7:00 pm

Tue, Nov 30
8:00 pm

Tue, Nov 30
9:00 pm

Tue, Nov 30
10:00 pm

Tue, Nov 30
11:00 pm

Wed, Dec 1
Midnight

Wed, Dec 1
1:00 am

Wed, Dec 1
2:00 am

Wed, Dec 1
3:00 am

Wed, Dec 1
4:00 am

Wed, Dec 1
5:00 am

Wed, Dec 1
6:00 am

Wed, Dec 1
7:00 am
SunnySunnySunnyPartly CloudyPartly CloudySunnySunnyPartly CloudyPartly CloudyPartly CloudyPartly CloudyPartly CloudyPartly CloudyPartly CloudyPartly CloudyPatchy Rain PossibleOvercastPartly CloudyLight Freezing RainPartly CloudyPartly CloudyPartly CloudyClearClearSunnySunnySunnySunnyPartly CloudySunnySunnySunnySunnySunnyClearClearClearClearPartly CloudyPartly CloudyClearClearPartly CloudyCloudyPartly CloudyOvercastOvercastPatchy Rain Possible
Sunny Sunny Sunny Partly cloudy Partly cloudy Sunny Sunny Partly cloudy Partly cloudy Partly cloudy Partly cloudy Partly cloudy Partly cloudy Partly cloudy Partly cloudy Patchy rain possible Overcast Partly cloudy Light freezing rain Partly cloudy Partly cloudy Partly cloudy Clear Clear Sunny Sunny Sunny Sunny Partly cloudy Sunny Sunny Sunny Sunny Sunny Clear Clear Clear Clear Partly cloudy Partly cloudy Clear Clear Partly cloudy Cloudy Partly cloudy Overcast Overcast Patchy rain possible
26°F
-4°C
26°F
-3°C
31°F
-1°C
36°F
2°C
40°F
4°C
42°F
5°C
42°F
6°C
43°F
6°C
43°F
6°C
42°F
5°C
36°F
2°C
33°F
0°C
32°F
0°C
32°F
0°C
34°F
1°C
34°F
1°C
34°F
1°C
32°F
0°C
31°F
-0°C
32°F
0°C
33°F
1°C
35°F
1°C
35°F
2°C
36°F
2°C
35°F
2°C
35°F
2°C
38°F
4°C
43°F
6°C
46°F
8°C
49°F
9°C
51°F
11°C
53°F
12°C
53°F
11°C
52°F
11°C
46°F
8°C
42°F
6°C
40°F
4°C
39°F
4°C
38°F
4°C
38°F
3°C
37°F
3°C
37°F
3°C
37°F
3°C
37°F
3°C
37°F
3°C
37°F
3°C
39°F
4°C
39°F
4°C
18°F
-8°C
18°F
-8°C
19°F
-7°C
21°F
-6°C
22°F
-6°C
21°F
-6°C
20°F
-7°C
19°F
-7°C
19°F
-7°C
22°F
-6°C
22°F
-6°C
21°F
-6°C
20°F
-7°C
21°F
-6°C
22°F
-6°C
22°F
-5°C
22°F
-5°C
22°F
-6°C
22°F
-6°C
21°F
-6°C
21°F
-6°C
22°F
-5°C
24°F
-5°C
25°F
-4°C
27°F
-3°C
28°F
-2°C
31°F
-1°C
35°F
1°C
36°F
2°C
37°F
3°C
38°F
3°C
38°F
4°C
38°F
3°C
40°F
5°C
39°F
4°C
38°F
3°C
36°F
2°C
35°F
2°C
35°F
2°C
35°F
2°C
35°F
2°C
35°F
1°C
35°F
2°C
34°F
1°C
35°F
2°C
35°F
1°C
35°F
2°C
37°F
3°C
30.21 in
1023 mb
30.21 in
1023 mb
30.24 in
1024 mb
30.21 in
1023 mb
30.21 in
1023 mb
30.18 in
1022 mb
30.15 in
1021 mb
30.12 in
1020 mb
30.12 in
1020 mb
30.12 in
1020 mb
30.12 in
1020 mb
30.09 in
1019 mb
30.12 in
1020 mb
30.09 in
1019 mb
30.09 in
1019 mb
30.06 in
1018 mb
30.06 in
1018 mb
30.03 in
1017 mb
30 in
1016 mb
30 in
1016 mb
29.97 in
1015 mb
29.97 in
1015 mb
29.94 in
1014 mb
29.94 in
1014 mb
29.97 in
1015 mb
30 in
1016 mb
30.03 in
1017 mb
30.03 in
1017 mb
30.03 in
1017 mb
30.03 in
1017 mb
30.03 in
1017 mb
30.03 in
1017 mb
30.03 in
1017 mb
30.06 in
1018 mb
30.09 in
1019 mb
30.09 in
1019 mb
30.15 in
1021 mb
30.15 in
1021 mb
30.15 in
1021 mb
30.15 in
1021 mb
30.15 in
1021 mb
30.15 in
1021 mb
30.15 in
1021 mb
30.15 in
1021 mb
30.15 in
1021 mb
30.12 in
1020 mb
30.15 in
1021 mb
30.15 in
1021 mb
72%71%60%54%48%43%40%39%39%44%55%60%61%62%61%62%62%65%67%62%60%60%61%65%71%75%74%72%68%64%60%58%57%63%76%83%86%87%88%90%91%91%91%92%92%93%88%90%
WWWNWWNWWWWWWSWWSWSSWSSWSSWSSWSSSSSSSWSSWSSWSWSWWSWWSWWSWWSWWWWWWWWWWWNWWSWSWWWNWWNWSWWSWESESSWE
4 mph
6 km/h
3 mph
5 km/h
4 mph
6 km/h
4 mph
6 km/h
4 mph
7 km/h
5 mph
8 km/h
6 mph
9 km/h
6 mph
10 km/h
6 mph
10 km/h
5 mph
8 km/h
4 mph
7 km/h
4 mph
7 km/h
4 mph
7 km/h
4 mph
7 km/h
4 mph
7 km/h
4 mph
7 km/h
4 mph
6 km/h
5 mph
8 km/h
6 mph
9 km/h
6 mph
10 km/h
7 mph
11 km/h
8 mph
13 km/h
10 mph
16 km/h
11 mph
17 km/h
10 mph
15 km/h
10 mph
15 km/h
10 mph
16 km/h
10 mph
16 km/h
10 mph
16 km/h
9 mph
15 km/h
8 mph
13 km/h
8 mph
12 km/h
7 mph
12 km/h
6 mph
10 km/h
4 mph
6 km/h
3 mph
5 km/h
4 mph
6 km/h
3 mph
5 km/h
3 mph
5 km/h
3 mph
5 km/h
2 mph
3 km/h
2 mph
4 km/h
1 mph
1 km/h
1 mph
2 km/h
1 mph
1 km/h
1 mph
1 km/h
1 mph
1 km/h
0 mph
0 km/h
0%0%0%0%0%0%0%0%0%0%0%0%0%0%0%79%0%0%0%0%0%0%0%0%0%0%0%0%0%0%0%0%0%0%0%0%0%0%0%0%0%0%0%0%0%0%0%66%
6 mi
10 km
6 mi
10 km
6 mi
10 km
6 mi
10 km
6 mi
10 km
6 mi
10 km
6 mi
10 km
6 mi
10 km
6 mi
10 km
6 mi
10 km
6 mi
10 km
6 mi
10 km
6 mi
10 km
6 mi
10 km
6 mi
10 km
6 mi
10 km
6 mi
10 km
6 mi
10 km
6 mi
10 km
6 mi
10 km
6 mi
10 km
6 mi
10 km
6 mi
10 km
6 mi
10 km
6 mi
10 km
6 mi
10 km
6 mi
10 km
6 mi
10 km
6 mi
10 km
6 mi
10 km
6 mi
10 km
6 mi
10 km
6 mi
10 km
6 mi
10 km
6 mi
10 km
6 mi
10 km
6 mi
10 km
6 mi
10 km
6 mi
10 km
6 mi
10 km
6 mi
10 km
6 mi
10 km
6 mi
10 km
6 mi
10 km
6 mi
10 km
6 mi
10 km
6 mi
10 km
6 mi
10 km

Day/Time
Weather
Condition
Temperature
Dew Point
Pressure
Humidity
Wind Direction
Wind Speed
Prob Precip %
Visibility
Prob Precip % = Probability of Precipitation.